Terug naar catalogus

CZ-6A DEB

ActiefPO
NORAD 60983·DEBRIS·🇨🇳 China

Gelanceerd Aug 6, 2024 vanaf Taiyuan Satellite Launch Center

Loading…

Volgende Passages (komende 24 uur)

TLE

VersSource: Space-Track

Epoch: Sep 14, 2026, 05:24 UTC

1 60983U 24140MJ  26257.22527273  .00000809  00000-0  23394-3 0  9990
2 60983  88.7829 241.2511 0054668  20.0141 340.3188 14.42758808108578

Volg CZ-6A DEB in realtime met AllMySat

Download on the App Store